Back to catalog

CZ-6A R/B

AliveLEO
NORAD 68197·ROCKET BODY·🇨🇳 China

Launched Mar 15, 2026 from Taiyuan Satellite Launch Center

Loading…

Next Passes (next 24 hours)

TLE

FreshSource: Space-Track

Epoch: Sep 14, 2026, 14:37 UTC

1 68197U 26051B   26257.60964885  .00000867  00000-0  98928-4 0  9994
2 68197 142.0288 152.5343 0186148 344.2379  15.2653 14.56549737 26710

Track CZ-6A R/B in real time with AllMySat

Download on the App Store